Theta_e
326 324 324 324 324 321 320 320 321 322 323 324 324 325 325 319 319 322 326 319 326 335 338 339 339 336 334 338 337 333 331 330 330 326 325 327 333 330 326 325 322 316 313
326 325 324 324 325 321 321 321 320 322 322 323 324 325 325 314 315 322 327 319 330 334 336 338 339 339 337 336 334 333 333 330 328 327 326 332 331 326 324 318 313 314 312
325 326 325 324 325 322 322 322 320 321 322 324 324 322 317 313 316 325 327 319 331 333 335 337 339 338 337 337 335 332 333 330 329 327 330 332 327 323 316 314 317 313 309
326 325 326 324 324 321 320 322 321 322 323 324 321 321 319 317 328 328 324 324 331 334 335 336 338 337 337 336 335 333 331 330 328 328 330 327 323 316 317 319 313 309 308
327 325 325 324 323 320 321 322 322 322 324 323 321 323 316 326 328 325 323 329 332 332 334 335 337 332 336 336 335 333 330 330 327 328 328 324 317 319 321 315 310 308 308
327 325 323 323 321 319 323 323 322 323 324 322 321 323 323 326 327 325 327 329 330 331 332 332 334 336 329 333 334 332 330 329 326 328 325 321 320 322 318 314 309 309 309
326 326 323 321 320 321 323 323 322 323 324 324 324 324 324 326 325 327 326 328 329 330 331 333 334 334 335 334 333 332 331 324 328 326 323 318 320 322 319 313 311 310 310
326 326 323 321 321 323 323 322 322 323 324 324 325 324 325 326 325 326 326 327 329 330 331 332 332 331 334 333 332 330 327 327 329 322 319 321 324 325 317 311 311 310 310
325 325 325 321 323 324 323 322 322 323 324 325 325 324 326 326 326 327 329 328 328 330 331 332 332 332 333 333 330 328 332 330 323 324 323 326 325 318 312 311 310 310 310
325 323 322 322 324 322 322 321 322 322 324 324 324 324 325 326 327 327 330 329 330 330 332 332 332 332 332 331 330 329 327 326 324 325 326 325 321 316 313 310 310 310 310
325 323 323 323 322 323 322 321 322 323 324 324 322 325 326 325 324 325 327 329 330 330 331 329 328 332 332 331 330 329 325 324 326 326 326 324 320 315 311 311 310 310 309
325 323 323 322 322 323 324 324 324 325 325 325 324 326 327 326 325 326 327 328 329 330 331 329 328 330 331 330 328 328 325 325 323 326 325 320 316 312 312 310 310 310 308
325 322 324 323 322 322 323 324 324 324 325 325 325 326 325 326 326 326 326 327 329 329 330 329 330 330 330 329 328 326 325 325 325 324 322 320 315 317 312 310 310 309 308
325 322 324 324 323 322 322 325 324 325 325 325 325 327 326 326 326 326 327 325 323 327 329 330 330 329 330 328 326 325 326 325 322 324 323 324 323 313 311 310 310 309 308
325 322 323 323 323 322 325 324 324 324 324 325 325 326 326 326 328 328 327 324 323 326 328 329 328 329 329 326 325 326 325 323 323 325 324 324 317 313 311 310 309 309 310
325 323 321 323 324 323 323 324 324 324 323 325 325 325 326 326 328 328 326 327 326 328 327 328 328 328 327 328 326 325 325 325 324 326 327 323 315 313 310 309 309 312 313
326 323 321 323 325 324 323 323 323 324 324 323 325 324 325 328 328 327 327 327 327 328 328 327 327 327 327 325 325 325 325 326 326 327 324 318 314 311 309 309 311 314 317
326 326 321 320 323 324 323 323 324 325 324 323 323 325 327 326 328 327 328 328 327 328 328 328 328 326 325 326 326 327 327 327 327 326 322 317 311 310 310 315 317 318 318
326 325 324 323 321 324 324 325 325 324 323 323 322 324 327 328 328 327 328 328 328 328 327 328 326 326 326 326 327 327 326 327 321 321 313 310 312 316 319 320 320 320 320
325 325 325 325 325 325 324 324 324 324 325 327 327 327 328 328 328 328 329 328 328 327 327 327 327 327 326 326 326 326 326 327 314 311 314 318 319 320 321 322 322 322 321
324 325 324 325 326 325 326 326 325 325 325 326 327 328 328 328 328 328 328 328 328 327 327 327 327 327 327 326 325 326 326 323 313 315 318 321 322 323 322 322 320 319 318
325 324 326 325 326 326 325 326 325 324 325 328 328 327 327 328 328 327 327 328 326 327 327 327 327 327 326 326 326 326 324 312 315 319 321 322 323 322 317 316 313 312 311
328 328 327 326 325 324 324 326 326 325 326 328 326 328 328 327 327 326 326 326 326 326 326 327 327 327 326 326 323 318 311 314 319 321 322 321 318 316 312 312 312 310 308
328 328 327 328 328 327 323 324 326 325 326 326 326 326 327 326 325 325 325 325 324 325 325 325 327 323 318 313 314 315 318 321 321 322 323 320 313 312 311 310 309 309 302
329 327 326 327 328 328 326 327 326 326 327 327 327 326 327 324 324 325 324 324 321 319 319 319 319 317 317 319 320 320 319 320 322 322 319 312 312 310 310 309 309 302 297
328 328 327 327 328 328 327 327 326 326 326 325 325 325 325 325 325 324 322 320 320 320 321 321 321 322 321 321 321 320 318 316 315 314 314 316 315 310 309 309 305 296 296
Wind_Speed
16 15 15 14 13 12 13 12 14 15 14 15 19 19 20 19 20 20 17 17 17 19 21 24 29 31 30 30 28 31 27 28 25 22 19 21 21 17 15 14 11 9 7
14 15 16 15 14 12 12 11 12 14 13 15 16 18 18 19 20 19 17 17 16 19 20 23 27 25 22 27 24 27 27 28 28 23 23 22 18 16 14 12 9 7 6
13 14 15 15 14 12 11 11 12 14 14 15 16 17 16 18 18 18 17 18 17 19 20 23 26 23 23 26 25 27 26 29 28 26 24 20 18 16 13 10 8 7 8
13 13 14 14 13 13 12 11 11 14 14 16 16 15 15 17 16 16 17 17 16 18 20 23 27 21 22 22 26 28 27 31 29 27 22 20 17 15 11 8 8 10 11
13 13 12 12 13 13 12 11 11 14 14 17 16 13 15 15 14 13 16 15 15 16 17 22 26 20 24 23 23 25 28 32 29 25 22 19 17 13 9 9 11 11 10
12 11 11 12 13 12 11 11 11 15 15 16 13 12 14 12 13 11 12 12 15 15 15 20 21 24 19 22 25 28 35 33 30 26 22 18 16 13 8 9 11 10 9
12 10 10 12 12 11 10 10 14 15 15 15 14 12 11 10 13 11 12 12 13 12 13 17 24 25 24 24 24 32 38 39 30 25 21 18 14 11 7 10 10 10 8
11 10 9 10 11 10 10 11 18 17 16 14 13 14 10 8 11 10 12 12 13 13 14 19 23 23 26 28 29 39 39 33 27 24 21 19 15 10 10 12 10 10 7
8 7 8 10 9 9 8 13 19 16 16 16 13 10 6 4 11 9 10 10 11 13 13 17 24 24 29 26 34 39 35 33 29 28 25 20 17 11 13 11 10 8 6
4 2 7 8 8 8 8 15 17 15 15 15 16 14 7 7 8 7 7 8 8 9 10 13 23 23 24 23 36 35 36 30 28 27 23 17 12 11 13 13 9 7 4
3 4 6 5 7 7 10 14 15 14 14 13 17 19 11 5 7 6 10 10 5 8 11 12 10 16 24 36 35 32 36 31 27 26 20 14 14 14 14 10 8 5 3
4 6 6 7 7 9 10 13 12 11 10 11 16 17 12 9 9 10 16 13 9 11 16 16 12 17 29 32 40 36 33 32 30 19 17 13 13 13 10 9 7 3 2
5 8 7 6 7 9 10 11 10 10 10 11 13 18 9 6 9 11 18 16 13 12 15 16 13 24 38 48 39 39 34 30 26 19 15 12 11 7 7 7 5 2 1
6 10 8 8 7 9 10 11 10 11 11 11 10 8 6 8 8 10 15 13 6 6 23 25 23 27 33 40 41 39 32 26 20 17 13 9 8 8 7 6 4 0 2
6 11 10 9 8 11 9 12 11 10 11 11 10 8 8 7 8 11 8 9 17 8 19 25 23 31 32 38 36 33 28 22 17 14 12 8 9 8 7 5 2 2 3
5 11 11 11 9 10 10 12 11 9 9 9 8 8 8 7 10 12 14 8 11 22 22 25 25 32 32 36 34 31 25 20 17 12 8 8 9 8 6 4 2 2 3
6 9 12 12 9 9 9 9 8 8 10 9 10 8 7 6 9 16 12 14 14 22 26 22 22 33 29 33 34 28 23 18 14 11 9 8 8 7 5 3 1 2 5
7 8 12 12 8 8 8 8 7 8 8 11 11 10 8 10 11 11 12 14 14 18 17 27 33 35 31 28 28 22 18 13 12 9 8 7 7 6 4 1 1 3 6
9 9 9 10 10 9 8 8 8 9 9 8 9 10 11 13 12 10 12 13 12 14 26 27 34 30 28 30 25 21 14 10 9 10 10 8 6 4 2 1 4 7 9
10 11 12 12 11 10 9 9 8 8 8 8 8 8 11 13 15 12 14 14 14 18 24 26 32 30 35 30 23 17 11 9 10 10 9 7 4 2 2 4 6 8 11
10 11 11 12 11 11 11 16 13 9 8 10 11 11 13 12 10 14 14 17 18 21 25 27 35 33 31 28 25 17 12 11 11 10 8 6 3 0 3 5 6 7 10
9 10 9 10 11 11 9 9 6 9 8 11 13 13 13 16 21 18 21 23 17 23 26 25 25 26 26 24 21 15 15 15 11 10 10 4 2 1 2 4 7 10 11
8 8 7 6 8 12 10 9 6 8 9 13 15 16 18 20 18 23 24 25 22 22 20 19 22 21 22 19 17 20 17 14 14 13 6 6 2 3 3 4 5 7 11
9 12 11 9 7 13 16 10 8 9 9 13 16 17 20 22 22 24 26 21 17 16 16 15 15 17 17 18 16 15 16 13 9 6 5 6 3 1 1 2 5 10 15
11 14 13 13 13 18 16 13 17 16 19 19 18 20 26 27 26 20 17 13 18 22 24 23 21 19 19 18 15 12 10 8 6 5 5 6 7 4 2 4 7 11 10
12 13 12 11 11 15 17 18 20 25 26 25 27 26 25 22 19 16 19 21 22 22 22 21 19 17 15 13 11 10 7 6 5 6 4 3 2 2 3 7 6 8 9
Wind_Direction
275 264 260 257 263 269 260 262 255 245 242 231 224 224 223 229 222 227 229 215 224 218 209 208 208 210 219 201 194 184 198 191 180 164 177 168 163 158 160 159 160 164 159
280 268 258 255 253 262 257 262 258 242 238 230 222 219 225 225 221 226 227 212 222 212 208 207 206 203 208 198 198 196 193 194 169 167 174 168 164 161 158 153 156 162 150
289 271 255 251 245 254 257 263 260 233 226 219 211 214 222 217 217 225 223 211 216 213 208 206 203 207 203 201 193 201 192 185 169 163 172 167 161 154 151 150 160 153 143
295 277 256 246 241 251 258 264 253 225 221 208 204 212 221 210 216 224 217 212 217 211 210 206 201 198 197 189 192 203 183 171 163 162 169 161 154 147 145 156 155 143 138
297 283 258 240 236 246 256 257 244 215 211 201 204 217 212 209 218 222 208 215 214 212 206 202 196 188 193 195 201 200 183 170 162 164 163 157 146 136 152 155 143 140 134
297 293 255 232 234 239 248 249 228 204 203 203 207 210 206 215 211 209 213 217 205 207 204 211 201 199 171 204 205 199 178 166 160 166 157 148 141 152 141 147 139 137 138
296 292 252 229 234 238 245 239 203 197 198 197 199 192 198 212 211 215 214 213 214 208 206 198 195 188 191 194 203 196 172 155 161 160 147 147 139 119 137 135 148 150 135
297 270 235 231 226 236 235 219 191 189 186 187 190 175 183 198 213 215 207 217 210 204 210 194 192 191 182 189 201 178 161 157 159 148 145 144 134 132 155 158 153 145 139
291 266 230 213 224 233 224 200 185 190 190 184 181 173 146 175 185 198 212 216 214 215 208 202 207 192 186 194 176 163 162 157 152 155 150 141 123 168 157 166 152 143 131
294 246 197 211 227 207 196 184 184 187 191 199 184 187 185 198 170 174 198 196 221 227 223 205 216 195 194 196 170 170 159 157 156 149 142 128 151 158 174 165 149 143 125
251 213 203 198 179 168 166 170 180 190 188 204 204 182 198 193 199 182 172 191 204 232 225 211 219 193 190 190 158 153 158 151 151 145 140 155 164 170 164 148 153 146 93
201 177 171 160 166 166 167 164 170 183 189 201 185 187 198 216 225 199 173 171 191 220 233 203 210 223 203 187 170 162 153 149 154 149 151 156 164 152 155 153 150 120 68
179 175 165 155 163 170 169 178 181 184 185 189 198 206 217 233 244 204 186 156 114 171 182 180 192 157 155 166 156 155 150 153 157 158 150 154 142 146 153 155 144 133 48
163 172 157 152 146 164 169 176 174 180 185 195 206 189 212 220 208 197 162 155 129 209 167 166 178 160 138 150 153 148 149 149 145 149 144 152 146 163 152 154 162 129 16
147 170 161 161 143 150 149 161 165 171 174 186 192 216 219 197 187 192 205 129 151 163 134 165 154 164 144 146 145 149 144 141 141 147 154 150 153 150 157 161 145 47 26
143 166 172 166 152 154 154 161 168 174 182 191 201 204 201 190 196 198 174 158 188 164 132 156 179 164 162 151 151 149 148 151 154 154 159 139 152 153 155 129 116 59 10
142 158 174 173 162 166 168 172 173 179 176 185 187 187 189 185 163 158 179 185 191 191 161 163 166 163 154 146 148 155 162 149 153 156 146 150 150 138 140 145 99 9 354
131 153 171 175 167 165 175 179 179 169 166 173 166 169 169 167 171 175 174 174 172 175 181 152 156 162 163 150 155 150 141 139 148 139 143 138 138 147 144 118 311 298 297
114 126 150 168 169 161 154 152 161 163 163 165 176 181 179 190 185 175 174 178 175 171 167 158 160 165 165 167 158 153 144 151 125 140 140 139 138 131 148 269 297 300 308
119 123 127 132 140 140 139 141 154 160 165 151 160 153 164 168 171 173 173 168 147 151 157 154 163 161 161 161 163 161 158 140 136 133 130 125 136 164 252 289 300 300 305
120 122 123 132 137 134 123 130 123 113 126 140 134 140 145 154 160 155 166 168 161 155 155 158 156 159 163 171 175 172 164 153 146 137 137 139 137 23 297 306 321 337 332
126 118 133 139 134 142 143 155 132 115 116 135 138 141 150 158 154 129 132 143 145 148 159 161 159 162 166 166 172 175 165 157 144 142 152 136 104 268 24 349 344 334 336
137 130 124 150 185 197 177 178 161 132 123 139 144 150 144 156 142 145 140 129 123 121 130 148 151 159 163 164 168 164 159 155 150 143 155 125 125 332 335 352 357 355 348
132 125 113 106 107 182 184 189 180 168 136 144 157 151 149 140 133 135 140 137 136 135 137 137 144 146 152 149 145 146 156 159 154 153 155 149 181 180 195 329 347 350 344
129 133 120 104 100 112 122 131 151 151 142 131 138 142 143 143 139 133 135 142 134 131 128 132 138 142 146 147 151 158 162 173 173 159 159 158 163 185 248 308 334 333 349
136 137 128 122 107 109 120 120 129 138 138 137 136 138 138 137 142 137 137 142 138 138 140 141 144 150 154 155 158 167 173 177 172 144 154 163 146 175 222 287 308 329 356